Weather reports worldwide

Advertisment
Fehmarn, Germany (10055): temperature & dewpoint: 10.09.2019 05:00:00 - 16.09.2019 05:00:00 (CEST)Fehmarn, Germany (10055): temperature 5cm & temperature -5cm: 10.09.2019 05:00:00 - 16.09.2019 05:00:00 (CEST)Fehmarn, Germany (10055): temperature -20cm & temperature -100cm: 10.09.2019 05:00:00 - 16.09.2019 05:00:00 (CEST)Fehmarn, Germany (10055): wind speed & gusts: 10.09.2019 05:00:00 - 16.09.2019 05:00:00 (CEST)Fehmarn, Germany (10055): wind direction: 10.09.2019 05:00:00 - 16.09.2019 05:00:00 (CEST)Fehmarn, Germany (10055): reduced air pressure: 10.09.2019 05:00:00 - 16.09.2019 05:00:00 (CEST)Fehmarn, Germany (10055): visibility: 10.09.2019 05:00:00 - 16.09.2019 05:00:00 (CEST)Fehmarn, Germany (10055): sunshine duration: 10.09.2019 05:00:00 - 16.09.2019 05:00:00 (CEST)Fehmarn, Germany (10055): precipitation: 10.09.2019 05:00:00 - 16.09.2019 05:00:00 (CEST)
Date & Time tt [°C] td [°C] tt 5cm [°C] tt -5cm [°C] tt -20cm [°C] tt -100cm [°C] ff [km/h] ff [kn] fx [km/h] fx [kn] dd ppp [hPa] vv [km] sd [min] rr [mm]
16.09.2019 05:00:00 13,8 8,1 13,1 12,9 14,4 16,7 43 23 56 30 W 1017,2 23 0 0,0
16.09.2019 04:00:00 13,8 7,7 13,0 12,9 14,5 16,7 46 25 58 32 WNW 1017,4 23 0 0,0
16.09.2019 03:00:00 13,9 8,2 13,0 13,1 14,7 16,7 47 26 58 32 WNW 1017,4 22 0 0,0
16.09.2019 02:00:00 14,0 8,2 13,1 13,3 14,9 16,7 48 26 65 35 WNW 1017,2 23 0 0,0
16.09.2019 01:00:00 14,2 8,0 13,4 13,5 15,1 16,7 50 27 66 36 W 1017,4 23 0 0,0
16.09.2019 00:00:00 14,2 8,6 13,3 13,8 15,3 16,7 49 27 64 35 W 1017,0 23 0 0,0
15.09.2019 23:00:00 14,4 8,5 13,6 14,2 15,5 16,7 48 26 62 34 W 1017,0 21 0 0,0
15.09.2019 22:00:00 14,8 9,5 14,2 14,8 15,7 16,7 50 27 61 33 WNW 1017,0 21 0 0,0
15.09.2019 21:00:00 15,0 9,6 14,3 15,1 15,8 16,7 44 24 60 33 W 1016,4 25 0 0,0
15.09.2019 20:00:00 15,3 9,3 14,8 15,7 16,0 16,7 49 26 65 35 WNW 1016,6 25 0 0,0
15.09.2019 19:00:00 15,8 10,4 15,6 16,4 16,1 16,7 44 24 59 32 W 1016,0 24 0 0,0
15.09.2019 18:00:00 16,0 10,3 16,1 17,2 16,0 16,7 49 26 64 34 WNW 1016,2 25 0 0,0
15.09.2019 17:00:00 16,4 10,6 16,7 18,2 15,9 16,7 55 30 65 35 WNW 1016,0 25 27 0,0
15.09.2019 16:00:00 17,3 13,8 17,7 18,8 15,7 16,7 44 24 59 32 W 1015,5 28 35 0,0
15.09.2019 15:00:00 17,1 14,2 18,2 18,2 15,5 16,7 41 22 62 33 W 1015,5 39 5 0,0
15.09.2019 14:00:00 16,9 14,1 17,4 17,5 15,3 16,7 49 26 64 35 W 1015,5 31 0 0,0
15.09.2019 13:00:00 16,8 14,5 18,5 18,8 15,0 16,7 42 23 64 35 WSW 1015,5 30 13 0,0
15.09.2019 12:00:00 16,8 13,9 18,2 17,6 14,7 16,7 48 26 63 34 W 1015,8 26 4 0,0
15.09.2019 11:00:00 16,2 12,4 17,2 16,4 14,5 16,7 45 25 63 34 WSW 1015,6 28 15 0,0
15.09.2019 10:00:00 15,2 10,6 15,7 15,1 14,4 16,7 45 24 63 34 WSW 1015,7 38 2 0,0
15.09.2019 09:00:00 15,0 9,4 15,5 14,1 14,4 16,7 42 23 64 35 WSW 1016,2 42 3 0,0
15.09.2019 08:00:00 15,1 8,9 14,3 13,4 14,5 16,7 33 18 55 30 SW 1016,8 52 0 0,0
15.09.2019 07:00:00 14,7 8,2 13,7 13,2 14,6 16,7 35 19 55 30 WSW 1017,7 58 0 0,0
15.09.2019 06:00:00 14,9 8,8 13,7 13,3 14,7 16,7 33 18 50 27 SW 1018,6 53 0 0,0
15.09.2019 05:00:00 14,7 8,8 13,5 13,4 14,9 16,7 31 17 51 28 SW 1019,8 54 0 0,0
15.09.2019 04:00:00 14,3 8,9 13,2 13,4 15,1 16,7 28 15 46 25 SW 1020,7 57 0 0,0
15.09.2019 03:00:00 14,6 9,4 13,3 13,6 15,2 16,8 21 12 37 20 SW 1022,5 48 0 0,0
15.09.2019 02:00:00 14,8 9,6 13,5 13,8 15,5 16,8 24 13 39 21 SW 1023,3 62 0 0,0
15.09.2019 01:00:00 14,6 10,1 13,1 13,9 15,7 16,8 16 9 29 16 SW 1024,7 54 0 0,0
15.09.2019 00:00:00 14,1 9,9 12,7 14,2 16,0 16,8 12 7 29 16 SSW 1025,1 55 0 0,0
14.09.2019 23:00:00 14,9 9,9 13,4 14,7 16,2 16,8 17 9 31 17 SW 1026,3 58 0 0,0
14.09.2019 22:00:00 15,4 9,5 13,9 15,2 16,5 16,8 22 12 34 18 WSW 1027,6 51 0 0,0
14.09.2019 21:00:00 15,5 9,9 14,0 15,8 16,8 16,8 27 15 36 19 WSW 1028,1 49 0 0,0
14.09.2019 20:00:00 16,1 10,0 14,9 16,6 17,0 16,8 28 15 34 18 W 1028,7 52 0 0,0
14.09.2019 19:00:00 16,4 8,5 15,6 18,0 17,1 16,8 19 10 27 15 WSW 1029,0 57 52 0,0
14.09.2019 18:00:00 16,9 9,3 17,1 19,5 17,0 16,8 18 10 21 12 W 1030,0 56 50 0,0
14.09.2019 17:00:00 17,1 8,8 18,2 20,8 16,7 16,8 15 8 22 12 W 1030,6 47 55 0,0
14.09.2019 16:00:00 17,1 9,4 19,3 21,4 16,3 16,8 19 10 25 14 W 1031,6 48 60 0,0
14.09.2019 15:00:00 16,6 8,8 19,2 21,4 15,8 16,8 21 11 26 14 W 1032,4 33 60 0,0
14.09.2019 14:00:00 16,5 8,5 19,1 21,0 15,2 16,8 23 12 29 16 W 1033,0 45 60 0,0
14.09.2019 13:00:00 15,7 8,4 18,8 20,0 14,7 16,8 23 12 29 16 W 1033,5 64 60 0,0
14.09.2019 12:00:00 15,7 9,3 18,9 18,3 14,3 16,8 22 12 32 17 W 1033,5 45 60 0,0
14.09.2019 11:00:00 15,2 10,2 17,5 16,6 13,9 16,8 27 14 32 17 W 1034,0 49 57 0,0
14.09.2019 10:00:00 15,0 10,5 16,4 14,9 13,8 16,8 22 12 27 14 W 1034,0 35 59 0,0
14.09.2019 09:00:00 14,7 9,2 15,5 13,3 13,7 16,8 20 11 27 14 WNW 1034,0 41 60 0,0
14.09.2019 08:00:00 14,3 9,1 14,0 12,2 13,8 16,8 22 12 30 16 WNW 1033,3 36 11 0,0
14.09.2019 07:00:00 14,1 9,0 12,9 11,9 13,9 16,8 22 12 30 16 WNW 1033,3 42 0 0,0
14.09.2019 06:00:00 14,1 9,1 12,7 12,0 14,1 16,8 25 13 36 20 WNW 1033,2 39 0 0,0
14.09.2019 05:00:00 14,4 8,8 13,1 12,1 14,2 16,8 31 17 37 20 WNW 1033,2 39 0 0,0
14.09.2019 04:00:00 14,4 8,5 13,2 12,3 14,4 16,8 32 17 38 21 WNW 1033,4 44 0 0,0
14.09.2019 03:00:00 14,4 8,8 13,2 12,4 14,6 16,8 29 16 37 20 WNW 1033,3 46 0 0,0
14.09.2019 02:00:00 14,4 9,2 13,2 12,7 14,8 16,8 27 15 39 21 NW 1033,4 39 0 0,0
14.09.2019 01:00:00 14,6 9,5 13,7 13,0 14,9 16,8 30 16 40 22 NW 1033,4 40 0 0,0
14.09.2019 00:00:00 14,9 9,6 13,8 13,2 15,1 16,8 32 18 45 24 NW 1033,3 39 0 0,0
13.09.2019 23:00:00 15,1 9,7 14,0 13,5 15,4 16,8 35 19 42 23 WNW 1032,8 41 0 0,0
13.09.2019 22:00:00 15,4 9,5 14,2 13,9 15,6 16,9 37 20 47 26 WNW 1032,2 40 0 0,0
13.09.2019 21:00:00 15,8 10,2 14,7 14,3 15,8 16,9 37 20 48 26 WNW 1031,8 37 0 0,0
13.09.2019 20:00:00 15,9 9,6 15,0 14,9 16,0 16,9 41 22 52 28 WNW 1031,4 39 0 0,0
13.09.2019 19:00:00 16,4 9,7 15,6 15,7 16,1 16,9 31 17 42 23 WNW 1030,7 37 7 0,0
13.09.2019 18:00:00 16,6 9,3 16,2 16,9 16,1 16,9 35 19 42 23 NW 1030,6 45 59 0,0
13.09.2019 17:00:00 16,9 9,8 17,0 17,5 16,0 16,9 37 20 53 28 WNW 1030,5 54 57 0,0
13.09.2019 16:00:00 17,0 8,7 17,6 17,7 15,9 16,9 35 19 46 25 WNW 1030,2 39 60 0,0
13.09.2019 15:00:00 17,0 9,0 18,0 17,9 15,7 16,9 32 17 43 23 WNW 1029,7 75 60 0,0
13.09.2019 14:00:00 16,5 10,0 17,8 17,8 15,6 16,9 35 19 53 29 WNW 1029,2 31 60 0,0
13.09.2019 13:00:00 16,5 10,4 18,0 17,4 15,4 16,9 41 22 51 28 WNW 1028,6 37 56 0,0
13.09.2019 12:00:00 16,1 10,2 17,6 17,0 15,3 16,9 42 23 51 28 NW 1028,1 36 58 0,0
13.09.2019 11:00:00 15,8 11,5 16,0 16,5 15,2 16,9 40 21 48 26 NW 1027,1 42 50 0,0
13.09.2019 10:00:00 15,9 11,8 16,6 15,9 15,2 16,9 37 20 44 24 NW 1025,8 41 37 0,0
13.09.2019 09:00:00 15,7 12,2 15,6 15,2 15,2 16,9 36 20 52 28 NW 1024,7 52 8 0,0
13.09.2019 08:00:00 15,6 14,0 14,7 15,4 15,2 16,9 38 20 54 29 NNW 1023,3 13 0 1,1
13.09.2019 07:00:00 16,9 15,9 16,3 15,7 15,2 16,9 35 19 49 27 WSW 1021,5 3,7 0 0,8
13.09.2019 06:00:00 17,2 15,4 16,3 15,5 15,2 16,9 32 17 48 26 WSW 1020,9 25 0 0,0
13.09.2019 05:00:00 16,9 14,9 15,9 15,3 15,2 16,9 27 15 43 23 SW 1021,1 28 0 0,1
13.09.2019 04:00:00 17,0 14,9 15,8 15,2 15,3 16,9 27 15 41 22 WSW 1021,5 38 0 0,3
13.09.2019 03:00:00 16,9 13,7 16,2 15,0 15,4 16,9 21 12 32 17 SW 1022,2 34 0 0,0
13.09.2019 02:00:00 16,9 13,6 16,0 15,0 15,4 16,9 21 11 36 19 SW 1022,8 34 0 0,0
13.09.2019 01:00:00 16,8 13,3 16,2 15,0 15,6 16,9 21 11 34 19 SW 1023,3 36 0 0,0
13.09.2019 00:00:00 16,8 12,5 16,0 15,0 15,7 16,9 20 11 29 16 SW 1023,9 40 0 0,0
12.09.2019 23:00:00 16,6 12,3 15,7 14,9 15,9 16,9 18 10 29 16 SW 1024,3 41 0 0,0
12.09.2019 22:00:00 16,8 12,4 15,7 15,2 16,1 16,9 16 8 28 15 SW 1024,7 43 0 0,0
12.09.2019 21:00:00 16,9 13,0 15,4 15,3 16,3 16,9 22 12 34 19 WSW 1024,7 35 0 0,0
12.09.2019 20:00:00 17,2 13,1 15,8 15,9 16,5 16,9 26 14 35 19 WSW 1024,6 37 9 0,0
12.09.2019 19:00:00 17,8 13,5 17,2 17,1 16,6 17,0 24 13 32 17 WSW 1024,4 40 44 0,0
12.09.2019 18:00:00 18,5 14,0 19,0 18,2 16,5 17,0 24 13 35 19 WSW 1024,4 36 40 0,0
12.09.2019 17:00:00 18,7 14,0 19,2 19,4 16,3 17,0 22 12 30 16 W 1024,4 39 60 0,0
12.09.2019 16:00:00 19,7 14,2 21,6 19,4 16,1 17,0 25 14 34 19 WSW 1024,6 43 36 0,0
12.09.2019 15:00:00 18,5 13,4 20,1 19,0 15,8 17,0 28 15 41 22 WSW 1024,5 39 3 0,0
12.09.2019 14:00:00 19,0 14,3 21,4 19,9 15,5 17,0 22 12 31 17 WSW 1024,5 42 21 0,0
12.09.2019 13:00:00 17,6 14,0 18,9 18,5 15,2 17,0 19 11 34 18 WSW 1024,5 33 8 0,0
12.09.2019 12:00:00 17,3 13,7 19,1 18,6 14,9 17,0 23 12 41 22 SW 1024,1 33 43 0,0
12.09.2019 11:00:00 17,1 14,2 19,8 17,4 14,6 17,0 26 14 37 20 WSW 1024,0 33 55 0,0
12.09.2019 10:00:00 16,2 13,5 17,2 16,3 14,4 17,0 23 13 33 18 SW 1023,2 25 55 0,0
12.09.2019 09:00:00 16,0 13,5 16,7 14,7 14,3 17,0 20 11 37 20 WSW 1022,6 31 45 0,0
12.09.2019 08:00:00 15,3 13,4 15,3 13,7 14,4 17,0 21 12 36 20 WSW 1022,2 27 30 0,0
12.09.2019 07:00:00 15,3 13,0 13,8 13,4 14,4 17,0 27 15 37 20 WSW 1021,4 31 0 0,0
12.09.2019 06:00:00 15,3 13,1 13,9 13,7 14,5 17,0 33 18 41 22 WSW 1020,9 34 0 0,0
12.09.2019 05:00:00 15,6 13,7 14,9 14,1 14,6 17,0 21 11 39 21 WSW 1020,5 31 0 0,0
12.09.2019 04:00:00 15,5 13,6 14,2 13,8 14,6 17,1 28 15 40 22 WSW 1020,1 30 0 0,0
12.09.2019 03:00:00 15,5 14,1 14,5 14,1 14,7 17,1 31 17 43 23 WSW 1019,6 27 0 0,0
12.09.2019 02:00:00 15,7 14,3 14,7 14,1 14,8 17,1 33 18 44 24 WSW 1018,9 30 0 0,0
12.09.2019 01:00:00 15,7 14,2 15,0 14,4 14,8 17,1 35 19 50 27 WSW 1018,3 35 0 0,0
12.09.2019 00:00:00 15,2 13,8 14,5 14,4 14,9 17,1 32 17 54 29 WSW 1017,8 42 0 0,1
11.09.2019 23:00:00 14,6 13,3 14,0 14,4 15,0 17,1 33 18 56 30 SW 1017,3 6 0 0,0
11.09.2019 22:00:00 14,8 12,7 14,2 14,5 15,2 17,1 35 19 56 30 SW 1017,1 67 0 0,0
11.09.2019 21:00:00 14,9 12,7 13,9 14,6 15,3 17,1 31 17 58 32 SW 1017,1 47 0 0,2
11.09.2019 20:00:00 15,5 12,6 13,9 14,9 15,5 17,1 35 19 61 33 SW 1017,1 13 0 0,4
11.09.2019 19:00:00 17,0 12,4 15,0 15,4 15,6 17,1 24 13 45 24 SW 1016,9 31 0 0,1
11.09.2019 18:00:00 17,9 11,2 17,0 16,0 15,8 17,1 23 12 37 20 SW 1016,9 50 0 0,0
11.09.2019 17:00:00 18,1 11,5 15,5 16,6 15,8 17,2 21 12 39 21 SW 1017,0 41 0 0,0
11.09.2019 16:00:00 19,1 10,1 19,0 18,0 15,7 17,2 24 13 42 23 SW 1017,2 57 12 0,0
11.09.2019 15:00:00 19,1 10,0 19,5 18,5 15,4 17,2 23 12 41 22 SSW 1017,5 63 21 0,0
11.09.2019 14:00:00 19,2 10,3 20,4 19,1 15,1 17,2 21 11 42 23 SSW 1017,8 58 55 0,0
11.09.2019 13:00:00 18,0 9,9 18,7 18,9 14,7 17,2 24 13 44 24 SW 1018,1 54 55 0,0
11.09.2019 12:00:00 17,8 10,8 19,9 18,2 14,3 17,2 22 12 43 23 SW 1018,2 38 60 0,0
11.09.2019 11:00:00 16,5 11,5 18,4 16,6 14,0 17,2 25 14 43 23 SW 1018,5 27 60 0,0
11.09.2019 10:00:00 15,1 11,1 16,7 15,1 13,8 17,2 26 14 40 22 SW 1018,6 28 60 0,0
11.09.2019 09:00:00 14,2 10,8 15,6 13,7 13,8 17,2 18 10 33 18 SSW 1018,5 54 60 0,0
11.09.2019 08:00:00 14,0 11,2 14,1 12,6 13,9 17,2 21 12 34 18 SW 1018,4 39 32 0,0
11.09.2019 07:00:00 13,8 11,7 12,5 12,6 14,0 17,3 19 11 35 19 SW 1018,2 40 0 0,0
11.09.2019 06:00:00 14,1 12,4 13,1 12,7 14,1 17,3 22 12 35 19 SW 1017,8 32 0 0,0
11.09.2019 05:00:00 14,4 12,6 13,0 12,9 14,3 17,3 21 12 34 18 WSW 1017,8 39 0 0,0
11.09.2019 04:00:00 14,6 12,2 13,3 13,2 14,4 17,3 26 14 37 20 WSW 1017,7 47 0 0,0
11.09.2019 03:00:00 14,6 12,3 13,4 13,7 14,5 17,3 29 15 48 26 WSW 1017,5 50 0 0,0
11.09.2019 02:00:00 15,6 12,9 14,3 14,0 14,5 17,3 36 20 45 25 W 1017,0 47 0 0,0
11.09.2019 01:00:00 14,9 13,2 14,1 14,3 14,5 17,3 34 18 50 27 W 1016,8 36 0 0,0
11.09.2019 00:00:00 15,8 12,9 15,5 14,4 14,6 17,3 41 22 52 28 W 1016,4 40 0 0,0
10.09.2019 23:00:00 16,0 13,3 15,5 14,4 14,6 17,3 41 22 53 28 W 1015,7 39 0 0,0
10.09.2019 22:00:00 16,1 13,6 15,5 14,4 14,7 17,3 42 23 56 30 W 1015,2 39 0 0,0
10.09.2019 21:00:00 16,2 13,9 15,6 14,6 14,7 17,4 45 24 57 31 W 1014,7 41 0 0,0
10.09.2019 20:00:00 16,3 13,4 15,7 14,7 14,8 17,4 46 25 59 32 W 1014,1 55 0 0,0
10.09.2019 19:00:00 16,1 13,8 15,8 14,9 14,8 17,4 44 24 59 32 W 1013,6 40 0 0,0
10.09.2019 18:00:00 15,9 14,0 15,0 15,1 14,8 17,4 46 25 63 34 W 1013,0 40 0 0,1
10.09.2019 17:00:00 15,7 13,7 14,9 15,4 14,7 17,4 53 28 62 34 W 1012,2 28 0 0,0
10.09.2019 16:00:00 15,8 14,5 15,5 15,4 14,7 17,4 49 27 67 36 W 1012,0 18 0 0,3
10.09.2019 15:00:00 16,3 13,4 15,1 15,6 14,6 17,4 51 28 61 33 W 1011,2 44 0 0,3
10.09.2019 14:00:00 16,8 13,4 16,9 15,8 14,5 17,4 49 27 62 33 W 1011,0 31 0 0,0
10.09.2019 13:00:00 16,4 13,6 15,8 15,4 14,3 17,4 44 24 57 31 W 1010,7 29 0 0,1
10.09.2019 12:00:00 16,4 13,4 16,6 15,4 14,2 17,5 44 24 56 31 W 1010,5 36 0 0,0
10.09.2019 11:00:00 15,8 12,8 15,7 14,9 14,1 17,5 43 23 60 32 W 1010,3 47 0 0,0
10.09.2019 10:00:00 15,7 12,8 15,2 14,5 14,0 17,5 50 27 62 34 WNW 1010,1 39 0 0,1
10.09.2019 09:00:00 15,0 13,2 14,3 13,9 14,0 17,5 48 26 66 36 WNW 1009,8 10 0 0,0
10.09.2019 08:00:00 14,8 12,3 14,5 13,7 14,0 17,5 50 27 61 33 WNW 1009,5 49 0 0,0
10.09.2019 07:00:00 14,8 12,5 13,7 13,6 14,0 17,5 48 26 59 32 WNW 1009,4 11 0 0,0
10.09.2019 06:00:00 14,8 11,9 13,4 13,7 14,1 17,5 49 26 59 32 WNW 1009,3 16 0 0,4
10.09.2019 05:00:00 14,7 13,1 13,8 13,8 14,1 17,5 46 25 56 30 WNW 1009,2 6 0 0,8

tt = temperature
td = dewpoint
tt 5cm = temperature 5cm
tt -5cm = temperature -5cm
tt -20cm = temperature -20cm
tt -100cm = temperature -100cm
ff = wind speed
fx = gusts
dd = wind direction
ppp = reduced air pressure
vv = visibility
sd = sunshine duration
rr = precipitation

Next stations